Location: ?????????
(38.5999°N, 22.7695°E)
Time: 10:27:19
(UTC+00:00)

Cosmos 968 Rocket - Pass Details

Date: 23 May 2024
Orbit: 738 x 769 km, 74.0° (Epoch: 18 June)

Event Time Altitude Azimuth Distance (km) Brightness Sun altitude
Exits shadow 00:22:18 62° 147° (SSE) 832 3.5 -24.8°
Maximum altitude 00:22:53 68° 106° (ESE) 796 3.5 -24.7°
Drops below altitude 10° 00:27:58 10° 24° (NNE) 2,260 7.0 -24.2°
Sets 00:30:20 0° 22° (NNE) 3,191 8.1 -24.0°
